Regional Weather Roundup
Issued by NWS Sterling, VA

Home | Current Version | Previous Version | Text Only | Print | Product List | Glossary On
Versions: 1 2 3 4 5 6 7 8 9 10 11 12 13 14 15 16 17 18 19 20 21 22 23 24 25 26 27 28 29 30 31 32 33 34 35 36 37 38 39 40 41 42 43 44 45 46 47 48 49 50
000
ASUS41 KLWX 030910
RWRLWX

REGIONAL WEATHER ROUNDUP
NATIONAL WEATHER SERVICE BALTIMORE MD/WASHINGTON DC
400 AM EST SAT DEC 03 2016

Note: "FAIR" indicates few or no clouds below 12,000 feet
with no significant weather and/or obstructions to visibility.
 TC=TEMPERATURE CELSIUS

 * =Non NWS site. Station does not report precipitation (e.g. rain,
    snow, etc.), thunder, or fog.

DCZ001-MDZ009-015-VAZ040>042-051-053>054-031000-
WASHINGTON METRO

CITY           SKY/WX    TMP DP  RH WIND       PRES   REMARKS
WASHINGTON NAT MOCLDY    45  29  53 W9        30.14S
DULLES         CLOUDY    42  28  57 NW13      30.14R
ANDREWS AFB    CLOUDY    43  28  56 W9        30.12R
FT BELVOIR     MOCLDY    44  28  53 NW17      30.14S
QUANTICO       CLOUDY    43  29  57 W6        30.17S
COLLEGE PARK*  MOCLDY    43  28  56 W7        30.12S
LEESBURG*      CLOUDY    43  32  65 NW10      30.14S
MANASSAS*      CLOUDY    45  28  53 NW15G22   30.15S
GAITHERSBURG*  CLOUDY    41  27  56 W12       30.15S

$$

MDZ006>007-011-014-031000-
BALTIMORE METRO

CITY           SKY/WX    TMP DP  RH WIND       PRES   REMARKS
BWI AIRPORT    PTCLDY    42  30  62 W12       30.09F
MD SCIENCE CTR   N/A     44  27  51 MISG      30.08F
ANNAPOLIS      PTCLDY    45  29  53 W12       30.09F
FORT MEADE*    CLOUDY    43  30  61 W9G18     30.13S

$$

MDZ012-015-019>023-031000-
MARYLAND EASTERN SHORE

CITY           SKY/WX    TMP DP  RH WIND       PRES   REMARKS
OCEAN CITY     CLEAR     40  28  62 W6        30.08F
SALISBURY      CLEAR     40  28  62 W7        30.09S
BAY BRIDGE AP* PTCLDY    45  32  61 W13G18    30.09F
CAMBRIDGE*     CLEAR     41  30  65 W12       30.09F
EASTON*        CLEAR     44  30  57 NW13G18   30.12F

$$

MDZ017>025-031000-
SOUTHERN MARYLAND

CITY           SKY/WX    TMP DP  RH WIND       PRES   REMARKS
PATUXENT RIVER CLEAR     41  26  55 W10       30.13R
ST INIGOES     CLOUDY    44  29  55 W13       30.13S
LEONARDTOWN*   MOCLDY    37  28  70 W6        30.15R

$$

MDZ003>005-031000-
NORTH CENTRAL MARYLAND

CITY           SKY/WX    TMP DP  RH WIND       PRES   REMARKS
FREDERICK*     PTCLDY    41  32  70 W12       30.15S
HAGERSTOWN APT PTCLDY    41  27  57 W18       30.10F
WESTMINSTER*   CLOUDY    39  28  65 W13G18    30.07F

$$

MDZ501>502-031000-
WESTERN MARYLAND

CITY           SKY/WX    TMP DP  RH WIND       PRES   REMARKS
OAKLAND*       CLOUDY    27  27 100 W10G25    30.11S WCI  17
CUMBERLAND*    NOT AVBL

$$

VAZ025>031-031000-
SHENANDOAH VALLEY

CITY           SKY/WX    TMP DP  RH WIND       PRES   REMARKS
WINCHESTER*    CLOUDY    39  28  65 W13       30.15R
FRONT ROYAL*   CLOUDY    41  28  60 NW7       30.15R
LURAY*         CLOUDY    41  30  65 S3        30.16S
NEW MARKET*    NOT AVBL
STAUNTON*      CLOUDY    33  27  76 CALM      30.20R
WAYNESBORO*    FAIR      34  23  64 W6        30.18R

$$

WVZ021-048>050-054>055-031000-
EASTERN WEST VIRGINIA PANHANDLE

CITY           SKY/WX    TMP DP  RH WIND       PRES   REMARKS
MARTINSBURG    CLOUDY    42  26  53 W9G18     30.14S
PETERSBURG*    CLOUDY    41  29  64 N7        30.20S

$$

VAZ036>039-050-031000-
CENTRAL FOOTHILLS

CITY           SKY/WX    TMP DP  RH WIND       PRES   REMARKS
CHARLOTTESVILL CLEAR     40  24  53 NW5       30.17S
CULPEPER*      CLOUDY    37  29  72 CALM      30.17R
ORANGE*          N/A     30  30 100 CALM      30.18S
GORDONSVILLE*  FAIR      31  28  88 SW3       30.17R
WARRENTON*     CLOUDY    43  24  47 NW9G16    30.15R

$$

VAZ055>057-031000-
NORTH AND CENTRAL PIEDMONT

CITY           SKY/WX    TMP DP  RH WIND       PRES   REMARKS
FREDERICKSBRG* CLOUDY    40  30  69 W6        30.16R
STAFFORD*      CLOUDY    39  29  68 CALM      30.21R

$$

NCZ024-NYZ072-PAZ021-071-VAZ022-071-031000-
OTHER REGIONAL OBSERVATIONS

CITY           SKY/WX    TMP DP  RH WIND       PRES   REMARKS
NEW YORK CITY  PTCLDY    43  27  53 W14G24    29.95F
PHILADELPHIA   CLOUDY    43  29  57 W10       30.03S
PITTSBURGH     CLOUDY    37  30  75 W6        30.21R
ROANOKE        CLOUDY    38  25  59 NW13      30.25R
RICHMOND       CLEAR     36  28  73 W8        30.18R
RALEIGH        PTCLDY    42  40  92 MISG      30.23S

$$

ANZ530>537-031000-
MARINE OBSERVATIONS

STATION/POSITION TIME  TEMP    WIND        PRES
                       AIR SEA DIR/SP/G
                 (UTC) (F)     (DEG/KT/KT) (MB)
THOMAS PT LIGHT  0900   45 50  280/ 18/ 21   N/A
BALT KEY BRIDGE  0842   44     250/ 16/ 19 1018.3F
COVE POINT       0842   42     310/  9/ 12 1020.3F
LEWISETTA        0842   42 51  290/ 10/ 12 1020.3R
SOLOMONS ISLAND  0842   43 52  290/  7/ 11   N/A
PINEY POINT      0848          290/ 12/ 16   N/A

$$




USA.gov is the U.S. government's official web portal to all federal, state and local government web resources and services.